Wind_Speed
8 8 8 7 7 6 4 4 2 2 4 3 1 0 2 3 1 1 3 3 1 2 3 2 2 2 0 2 4 5 5 5 4 3 0 5 3 2 14 10 3 9 19 22 25 28 26 26 23 20 19 18 17 17 16 15 15 14 13 12 11 10 8 8 8 8 7 7 7 7 8 8 9 8 9 8 7 6 7 6 6 7 7 6 4 5 6 4 4 5 4 4 4 4 4 4 4
8 8 8 6 6 4 1 3 3 3 5 3 2 2 3 2 1 3 4 3 3 2 2 2 1 2 2 2 3 3 2 5 5 2 3 6 5 4 13 12 5 8 18 21 24 28 26 26 25 22 20 20 19 18 18 16 16 14 14 12 11 10 8 8 8 7 6 6 6 7 7 8 8 7 8 7 6 7 6 5 4 5 6 6 3 4 6 4 3 2 1 1 1 1 2 1 1
9 8 8 6 3 4 1 3 2 1 5 2 3 4 2 0 4 6 7 7 6 3 3 1 1 1 3 4 1 3 2 4 3 2 4 6 4 2 11 13 7 8 16 19 22 26 27 26 25 24 21 20 20 19 19 18 17 15 15 13 12 11 9 8 8 7 6 6 6 6 6 7 7 7 7 6 5 6 6 5 4 5 6 5 3 3 4 4 4 2 2 2 1 1 2 2 3
9 7 9 4 1 4 3 4 2 4 4 2 2 3 2 3 6 7 7 7 6 3 3 1 0 2 3 2 1 1 3 4 3 4 2 4 2 1 9 14 9 9 14 18 20 24 26 26 25 24 23 21 20 20 19 19 18 16 16 14 13 12 10 9 9 8 7 6 6 6 6 6 6 6 5 5 4 4 5 4 3 4 5 5 4 3 4 3 3 3 4 4 3 3 4 4 5
8 5 7 3 2 2 3 3 2 4 3 4 2 3 4 6 5 6 7 7 5 0 1 1 1 2 2 0 1 1 3 2 3 5 3 4 3 2 8 14 10 9 13 17 18 22 25 25 25 24 23 22 21 20 20 20 18 17 16 16 14 13 12 10 9 9 8 7 7 7 7 7 7 6 5 4 3 3 4 3 2 3 4 4 3 3 3 2 2 3 5 6 5 4 5 6 5
6 3 6 6 3 1 2 2 2 1 4 5 3 4 5 5 5 4 7 6 3 1 2 1 1 1 1 2 2 3 3 0 2 4 3 3 2 2 7 12 11 8 11 16 17 20 23 25 25 24 24 23 21 20 21 20 18 17 17 16 15 13 12 11 10 10 9 8 7 7 7 7 7 6 5 3 1 2 3 2 2 2 3 3 3 3 3 3 3 5 5 5 7 8 6 6 6
7 3 4 5 2 2 3 3 4 2 2 4 2 3 5 5 5 2 6 3 0 1 2 1 0 1 1 2 2 4 3 2 2 2 4 4 2 2 6 10 10 8 10 15 17 19 21 24 25 24 24 23 22 20 21 20 19 17 16 16 14 13 12 11 11 10 10 9 9 8 7 7 6 5 4 3 1 1 2 2 2 2 3 2 3 3 2 3 6 7 5 5 9 10 7 5 6
7 3 0 3 2 4 4 2 3 2 0 2 3 5 5 5 4 0 3 0 0 2 2 2 1 1 1 3 2 4 2 4 5 5 7 4 3 2 5 8 8 7 9 13 15 17 19 23 25 25 24 23 22 21 21 20 19 18 16 16 15 14 12 12 11 11 11 9 9 9 8 7 6 5 5 4 2 1 2 2 2 3 3 2 2 1 1 4 6 4 6 10 13 13 9 5 5
6 4 0 3 2 3 3 1 2 2 3 4 3 5 4 2 3 1 2 2 1 2 4 4 1 1 3 3 3 5 3 4 6 6 5 3 3 2 5 7 6 6 8 12 13 15 17 20 24 25 24 23 23 21 21 20 19 19 17 16 16 15 13 13 11 11 12 10 10 10 9 8 7 6 6 5 4 2 2 2 3 3 3 2 2 3 2 2 3 5 10 13 14 14 10 6 5
4 4 1 2 3 3 3 1 1 2 4 4 4 7 5 1 2 1 2 2 1 0 5 3 1 2 2 2 3 3 5 7 5 2 3 3 3 3 5 6 5 5 6 9 11 13 14 17 21 24 25 23 23 22 21 20 19 19 18 17 17 16 14 13 12 12 13 11 10 10 10 9 8 8 7 7 5 4 3 2 3 4 3 2 3 3 3 3 3 6 10 11 12 14 9 5 3
2 4 2 4 4 2 1 2 3 3 5 5 4 6 5 3 3 1 1 3 1 1 3 1 1 1 2 3 3 3 8 8 3 1 1 3 3 4 4 5 5 5 6 7 9 11 12 15 18 22 25 24 23 23 22 21 20 20 19 18 17 16 15 15 14 13 13 13 12 11 10 10 9 9 8 8 7 6 5 4 3 3 4 3 3 4 5 6 6 6 9 11 12 13 8 4 2
2 3 4 4 3 2 3 3 4 5 6 4 2 2 2 4 2 1 1 2 3 4 3 1 0 2 2 4 3 6 9 6 2 1 1 3 3 4 5 5 5 5 6 7 9 10 11 13 16 20 24 25 24 23 23 22 21 20 21 20 18 17 16 16 15 14 14 14 13 13 11 11 11 9 9 9 8 7 6 6 4 3 4 3 4 5 6 7 7 8 10 12 12 13 9 4 2
2 1 4 3 2 3 3 2 4 4 5 2 2 2 0 2 1 4 2 0 2 4 3 4 2 2 1 4 3 6 8 7 2 1 2 4 5 6 6 7 6 6 7 8 10 10 11 12 14 18 21 25 25 24 24 23 22 21 21 21 19 17 17 17 17 16 15 15 15 14 13 12 12 11 10 9 9 8 7 7 5 4 4 4 4 6 6 6 8 10 11 12 13 12 9 5 3
3 3 4 3 1 2 3 0 2 0 2 3 3 3 2 1 2 3 5 2 4 1 2 2 3 2 2 3 5 5 5 8 2 2 3 5 7 7 8 8 8 8 7 9 10 11 12 12 13 15 19 23 25 25 25 24 24 22 21 22 21 18 17 17 18 17 16 16 16 16 15 14 14 12 11 10 9 9 8 7 6 5 4 4 5 6 7 7 9 11 11 12 13 11 8 7 5
3 2 4 4 2 1 3 0 1 4 1 3 2 1 3 1 4 2 4 2 3 4 2 2 2 1 2 1 5 5 5 11 6 5 5 6 7 8 9 9 10 10 9 10 10 11 12 12 13 14 17 21 24 25 25 24 24 23 22 22 22 20 18 17 18 18 17 17 17 17 17 15 15 14 12 10 10 10 10 9 7 5 4 5 7 7 7 8 9 10 11 12 13 12 10 7 6
3 4 5 3 1 0 3 2 2 3 1 4 3 0 2 3 4 2 4 3 1 3 3 2 2 1 2 3 6 6 9 13 10 7 6 6 7 8 9 9 10 10 11 11 11 12 13 13 14 14 16 19 22 25 25 24 24 23 22 22 22 21 19 17 17 18 18 18 18 18 17 17 16 15 14 11 10 11 11 9 8 7 6 8 8 8 8 8 9 10 11 12 13 13 11 8 6
3 4 5 3 1 2 3 3 3 2 3 6 5 3 3 5 2 1 1 4 0 3 4 4 3 1 4 4 8 11 13 14 10 7 6 5 6 7 7 7 8 10 11 12 12 12 13 15 15 15 16 17 20 23 25 25 24 24 22 21 21 21 20 18 17 18 18 18 18 18 18 18 17 16 14 12 11 11 11 10 10 10 9 10 8 9 9 9 9 10 12 12 13 13 10 8 7
5 4 3 1 2 3 5 6 6 2 2 5 5 4 3 4 5 3 2 3 4 4 4 5 5 5 6 7 13 15 15 14 10 7 6 6 7 8 8 8 8 9 10 11 12 13 15 16 17 17 17 17 18 21 23 25 25 24 23 22 21 21 21 19 18 18 19 18 18 18 18 18 18 17 13 11 11 12 13 11 11 12 11 10 9 9 9 9 10 10 11 12 13 12 9 9 8
4 3 2 2 5 4 5 6 5 2 1 4 4 3 2 3 3 3 3 5 7 6 6 5 5 8 8 10 15 16 14 14 12 10 11 11 12 12 13 14 13 13 12 12 12 12 15 17 18 18 18 18 18 20 22 23 24 24 24 23 22 21 21 21 19 18 19 18 19 18 18 18 19 18 15 12 12 13 14 13 12 13 12 12 11 9 7 8 10 11 12 12 13 12 9 9 9
2 4 2 5 6 4 4 5 6 5 1 2 4 2 0 4 3 1 1 5 7 5 6 3 4 8 9 10 15 16 14 16 16 16 16 15 15 14 15 15 16 16 16 15 14 12 14 16 18 19 19 19 19 20 22 22 23 24 24 24 23 22 22 22 20 20 20 19 18 18 18 18 18 18 17 14 14 15 16 15 14 14 14 13 12 8 5 8 10 11 14 14 14 13 10 9 10
2 3 3 5 3 2 4 6 6 5 2 2 1 3 4 4 1 1 2 2 8 5 5 4 3 7 7 7 12 16 17 18 19 20 18 17 17 17 17 15 15 15 14 14 14 13 13 15 17 19 20 20 20 21 22 23 23 23 23 24 24 23 23 23 22 21 20 20 19 18 18 19 18 17 17 17 15 15 15 16 15 14 16 14 10 7 4 7 10 13 15 16 15 15 13 10 10
1 2 4 5 4 2 5 5 4 2 2 1 1 3 4 1 0 2 5 2 5 3 3 5 2 3 2 5 8 13 16 16 18 19 18 18 18 19 20 18 16 15 14 13 11 11 13 14 16 18 20 21 20 21 21 22 22 22 22 22 22 23 23 22 23 23 21 21 20 19 19 19 19 17 17 17 16 16 15 16 17 17 19 16 11 9 8 10 11 14 16 17 16 15 14 13 11
0 3 1 3 4 3 4 2 3 1 2 3 2 3 1 2 4 3 6 6 6 3 1 4 5 5 7 9 9 10 11 12 14 17 17 18 19 19 21 21 20 19 17 15 13 10 10 12 15 16 18 20 20 20 20 21 21 21 21 20 21 21 21 19 19 21 22 21 20 20 20 20 19 18 17 16 15 18 16 14 18 19 19 18 13 12 13 12 10 14 17 17 17 16 15 14 12
3 2 4 2 4 5 4 0 1 2 2 6 2 4 3 2 4 2 3 4 2 1 6 10 9 11 12 12 10 9 10 11 13 15 16 17 17 16 19 22 20 20 19 18 15 11 9 9 13 16 16 17 18 19 19 20 19 19 19 19 19 19 20 21 18 16 19 21 22 20 19 21 20 18 18 16 16 18 16 14 17 18 17 17 15 12 13 11 10 15 17 17 16 16 16 15 14
3 4 4 1 2 6 6 4 4 4 6 5 2 6 6 4 3 2 4 0 2 4 9 8 8 13 13 11 10 9 10 13 15 16 17 18 18 18 20 23 22 22 22 21 19 15 11 8 8 13 15 14 15 18 18 18 18 17 18 18 18 18 18 19 18 17 17 18 21 19 18 22 24 22 20 17 17 17 18 18 18 20 20 20 17 14 14 12 14 16 17 17 16 17 16 16 15
3 5 3 3 5 6 5 6 5 3 4 2 2 9 6 2 2 2 5 1 4 6 8 6 9 11 10 8 9 9 10 13 16 17 17 19 22 23 24 24 24 24 23 22 21 18 14 10 5 5 10 11 11 14 16 16 16 16 16 16 16 17 16 15 15 17 18 17 18 18 18 22 24 24 19 15 16 19 21 20 18 19 21 22 21 16 14 14 17 17 16 16 16 17 17 16 16
3 3 3 4 6 7 4 5 5 2 3 4 5 10 6 3 1 1 4 3 2 8 9 7 10 9 8 7 7 9 11 13 16 17 19 22 24 25 25 25 25 23 23 23 22 20 15 11 7 3 2 4 6 10 13 13 14 14 14 14 14 15 16 15 14 16 17 17 17 16 16 20 20 18 18 14 13 17 19 16 15 18 20 20 18 12 14 17 20 19 16 16 16 17 17 17 17
1 1 5 7 7 7 4 6 6 2 3 4 7 6 4 3 1 4 3 5 4 9 8 8 9 7 6 7 6 9 11 13 17 18 19 20 21 22 23 24 24 22 22 23 22 20 17 13 11 7 5 3 1 4 8 9 10 10 10 11 11 12 13 14 14 14 15 15 13 13 14 14 14 13 16 15 12 15 17 16 15 17 19 18 16 16 19 20 20 18 17 16 16 17 18 18 18
1 3 4 9 8 7 6 4 3 0 1 3 6 2 4 2 3 5 3 4 7 10 8 7 7 6 6 6 6 7 10 14 17 18 18 18 19 20 21 21 21 21 21 21 21 21 19 16 13 10 9 8 6 3 2 3 4 5 6 6 7 8 9 11 11 9 10 12 11 11 12 11 12 13 13 14 14 14 14 16 16 15 18 19 20 21 20 20 19 18 18 16 16 17 18 18 18
2 3 3 6 7 7 6 2 4 3 0 2 3 3 6 6 4 2 2 4 8 9 6 6 6 5 5 5 5 6 10 14 15 17 18 19 20 20 20 20 20 20 20 21 22 22 21 18 15 13 12 11 9 8 5 4 2 2 2 2 4 6 7 7 8 9 8 10 12 12 10 9 11 12 11 12 13 13 12 13 15 15 16 17 17 18 19 20 20 19 18 17 17 17 18 18 18
1 1 2 3 2 5 7 2 2 3 1 1 3 2 6 7 5 3 1 4 8 7 5 5 5 5 5 5 6 5 8 12 14 18 20 20 20 20 20 20 20 20 20 22 23 23 22 20 18 17 15 14 13 11 10 9 8 6 5 3 1 1 2 2 3 6 6 7 8 9 10 10 11 12 11 12 12 14 14 15 16 16 15 15 15 16 19 20 19 19 18 18 18 18 17 16 17
2 1 3 3 2 5 8 3 2 2 2 4 4 3 7 7 5 4 4 3 8 8 5 5 5 5 6 5 6 5 6 11 16 20 21 20 20 20 20 20 21 21 21 21 22 23 24 23 22 20 19 18 16 15 14 13 11 10 10 9 8 7 9 12 13 10 8 7 5 4 5 6 7 9 10 11 12 13 14 15 16 16 17 17 17 18 18 18 18 19 19 18 19 18 17 16 15
3 0 4 3 3 3 6 3 1 2 0 4 2 2 5 4 1 4 6 5 9 9 5 5 5 5 5 4 5 4 5 8 14 19 21 20 19 19 19 20 20 21 21 21 22 23 25 25 25 25 24 23 22 20 19 18 18 17 17 17 16 15 15 19 20 19 19 19 17 15 13 11 9 6 4 4 5 6 8 9 10 12 13 14 14 15 16 16 17 17 17 17 18 18 17 17 16
3 0 3 4 3 3 4 3 3 3 3 1 1 2 7 7 2 4 8 5 9 8 5 4 4 3 4 4 4 5 5 6 9 15 19 19 18 18 19 19 20 21 22 22 22 23 25 26 27 28 28 27 27 26 26 26 25 24 24 23 22 23 22 21 21 19 22 23 22 22 20 19 18 16 14 11 9 7 7 7 8 8 9 9 9 10 11 13 13 13 14 15 15 16 16 17 17
4 3 3 3 3 4 5 4 2 4 3 1 1 2 9 13 3 5 7 5 8 6 4 4 3 4 4 4 5 5 6 6 8 14 17 18 18 18 18 20 21 21 22 22 22 22 24 25 26 27 28 28 29 28 29 29 28 27 27 26 25 27 25 24 23 21 22 22 23 23 21 20 19 18 18 16 16 15 13 13 11 11 10 10 9 8 9 10 10 11 12 12 12 13 14 16 17
7 6 5 4 4 5 5 4 5 1 2 4 5 6 8 13 7 4 6 5 8 5 4 4 3 4 4 4 4 4 6 6 9 14 17 18 18 18 18 20 21 22 22 22 22 22 23 24 24 26 26 26 27 27 27 27 27 27 26 26 27 28 26 26 25 24 24 23 22 22 21 21 20 19 19 18 17 17 17 16 15 15 14 12 11 9 8 8 9 10 11 11 12 12 13 15 15
6 5 4 4 5 6 3 2 6 1 1 5 5 6 8 11 8 2 3 4 6 4 4 4 3 4 3 4 4 4 5 5 9 15 17 18 18 18 19 19 21 23 24 24 24 25 25 24 25 26 24 23 23 24 24 24 24 25 27 28 28 28 26 26 25 24 24 23 21 20 20 20 19 19 19 18 17 17 16 16 15 15 15 14 13 12 11 11 10 10 10 10 11 11 12 12 13
3 3 3 3 4 6 4 2 5 1 2 5 2 3 9 11 5 3 2 3 3 1 4 3 3 3 2 3 4 4 3 4 9 14 16 17 18 19 20 21 22 23 23 24 25 24 25 26 26 27 26 24 24 24 23 24 24 24 27 28 28 28 27 26 27 26 24 22 20 19 18 18 18 18 18 17 17 17 17 16 16 16 14 14 13 12 12 11 11 11 10 11 11 10 11 10 11
2 2 2 4 3 4 6 3 4 2 2 4 3 2 9 9 1 4 3 3 1 1 3 3 3 4 3 3 3 4 3 4 6 9 12 15 17 19 20 21 22 22 22 23 23 24 25 26 26 27 27 26 27 26 26 27 27 26 26 27 27 28 29 28 27 26 24 23 23 21 20 19 18 18 18 17 17 17 18 18 18 17 15 14 13 12 11 11 11 10 10 10 10 9 9 8 9
3 3 2 5 2 0 4 4 4 2 1 2 1 2 8 7 2 5 4 3 3 3 4 4 3 3 3 3 2 4 4 4 5 6 9 12 16 18 19 19 20 22 23 23 23 23 25 26 25 25 26 26 26 26 27 27 27 27 28 28 27 28 28 26 25 25 25 25 25 24 23 22 20 20 20 19 19 19 18 18 18 17 17 17 15 14 14 13 13 11 11 10 9 9 8 7 8
3 5 6 6 4 5 6 3 4 2 3 1 2 3 6 5 2 0 1 2 3 4 4 4 4 2 3 3 3 4 4 4 4 4 6 10 14 15 16 18 20 23 24 22 21 22 24 25 25 24 24 24 24 23 23 23 24 25 25 25 25 26 26 26 27 27 27 26 26 26 25 23 22 22 21 21 20 20 19 19 18 18 18 18 17 17 17 16 15 14 13 11 10 9 8 8 9
3 5 10 10 7 7 5 2 4 3 4 2 1 2 5 5 4 4 3 2 2 3 3 3 2 3 3 3 3 3 4 3 3 3 5 8 11 13 15 17 19 22 23 22 21 21 24 25 25 25 25 24 23 22 21 20 21 22 23 24 25 27 29 28 28 28 28 28 28 26 25 24 23 22 22 22 21 21 20 20 19 19 18 18 18 17 17 17 17 17 16 14 13 11 9 9 10
2 5 8 9 7 5 4 2 2 1 3 2 2 2 4 5 5 3 4 3 1 1 2 1 1 2 2 2 2 3 3 3 3 4 6 8 10 12 15 16 18 19 20 22 22 22 24 25 25 25 26 25 25 24 22 22 24 25 27 29 29 30 30 28 27 28 28 28 28 28 28 28 26 25 25 24 23 22 21 21 20 20 20 19 18 18 18 18 17 16 16 15 15 14 13 12 12
3 4 5 6 7 7 6 6 4 3 3 3 2 2 3 4 4 2 4 3 2 1 1 2 2 2 2 2 2 2 2 2 2 4 5 7 9 11 13 15 16 17 19 22 24 24 25 25 26 26 26 26 25 24 24 24 26 28 29 31 31 31 31 29 28 28 28 27 28 29 30 30 29 29 28 27 27 26 25 24 23 23 23 23 22 22 22 20 18 17 16 15 15 15 15 14 13
4 2 6 6 6 6 5 6 3 1 1 4 4 1 2 5 4 1 3 3 6 5 6 6 5 4 4 3 3 2 2 1 2 3 3 6 8 10 12 14 15 16 19 22 24 25 26 26 27 27 27 27 26 26 26 27 27 28 29 31 33 32 31 30 28 28 27 27 28 29 28 28 28 28 28 28 28 27 27 26 25 25 26 25 25 25 25 24 23 21 20 18 17 16 15 13 13
3 6 7 5 5 5 4 5 3 2 1 5 6 4 2 5 5 2 2 4 7 6 6 6 6 5 5 4 4 4 2 2 3 3 4 6 8 10 11 14 16 17 19 21 24 26 27 27 27 28 28 28 27 27 27 28 28 29 30 31 32 31 29 28 27 27 26 26 27 27 27 27 26 26 26 26 26 26 26 25 25 25 25 25 24 24 24 24 24 24 23 21 20 19 18 16 14
5 6 6 6 5 5 3 2 4 2 3 6 7 5 4 4 5 4 4 4 4 5 4 5 5 5 6 5 4 4 3 3 3 3 5 7 9 10 12 14 16 17 18 20 23 25 26 27 26 28 29 28 27 27 27 28 28 28 29 29 30 29 26 26 26 26 25 25 26 26 25 25 25 25 25 25 25 25 24 24 24 24 23 23 23 23 23 23 22 22 21 21 21 21 20 19 18
5 4 4 3 3 3 4 4 3 0 5 5 4 2 3 4 5 4 5 4 4 5 5 8 9 8 7 6 5 5 4 4 3 3 4 7 9 10 12 14 15 17 18 19 22 24 25 26 26 27 28 26 26 26 26 27 27 27 27 27 27 26 25 25 26 26 25 25 25 24 23 23 23 24 24 24 24 24 23 23 23 23 23 23 22 22 21 20 19 19 19 19 19 19 19 19 19
4 4 6 4 2 2 2 3 0 3 6 4 3 2 2 5 6 5 5 4 3 3 4 8 11 10 8 7 6 5 4 4 4 3 3 5 7 9 10 13 14 16 17 18 20 23 24 25 25 27 27 26 25 25 26 26 27 26 26 26 26 25 25 25 26 25 24 24 23 22 23 23 23 23 23 24 23 22 22 22 22 22 22 21 21 20 19 19 18 18 18 17 17 17 17 17 17
4 5 5 4 2 1 2 3 2 4 4 2 3 2 2 4 4 4 4 2 3 4 5 6 8 10 9 8 6 5 5 4 4 4 4 5 7 8 10 12 13 15 16 17 20 22 23 24 24 26 26 25 24 24 25 26 26 26 25 25 25 24 25 25 25 24 23 22 22 21 22 22 22 22 22 22 21 20 20 21 20 20 20 19 19 18 18 18 18 18 17 17 16 16 15 15 15
3 3 5 4 4 4 4 4 3 4 3 2 2 1 3 3 2 3 4 3 4 4 4 5 6 7 7 6 6 5 5 5 5 4 5 6 7 8 10 11 12 14 16 18 19 21 23 23 23 25 25 23 23 24 24 25 26 25 24 24 24 23 24 24 23 22 21 20 20 19 20 19 19 20 19 19 19 18 19 19 19 19 19 19 19 19 18 18 18 18 18 18 18 17 16 16 16
2 2 4 2 4 4 2 2 5 3 2 3 2 3 4 4 1 3 3 3 4 4 1 5 7 6 7 6 6 6 6 6 5 4 5 7 9 9 10 12 13 14 15 17 19 20 22 22 23 23 23 22 22 23 23 24 24 23 23 23 22 22 22 22 21 21 20 19 18 18 18 18 18 18 18 18 18 18 18 18 18 18 18 18 19 19 18 19 19 19 20 20 20 20 20 20 20
2 2 3 4 4 6 4 1 1 4 1 4 2 3 4 1 1 2 2 3 3 4 2 6 7 7 8 7 7 7 7 6 6 5 6 9 10 10 11 12 13 14 15 17 18 19 20 21 22 22 22 22 21 21 22 22 22 22 21 21 20 20 20 20 20 19 18 18 17 17 17 17 17 18 19 19 20 20 20 20 20 20 20 20 20 20 20 20 20 21 21 21 22 22 22 22 23
5 3 5 4 2 4 4 1 3 3 2 4 1 3 4 1 2 2 2 2 3 2 2 5 5 6 8 8 8 8 8 7 6 6 7 10 12 12 13 13 13 15 15 16 17 18 18 19 19 20 21 21 20 20 20 19 19 20 20 19 19 19 19 19 19 18 17 16 16 17 16 17 17 18 19 19 20 20 21 21 22 22 22 23 23 23 23 23 23 23 23 23 23 24 24 24 24
4 4 3 3 3 2 2 2 2 1 3 4 2 3 3 4 4 2 4 8 8 6 5 5 7 8 9 9 9 9 8 6 6 6 6 9 12 14 15 15 14 15 15 16 16 16 17 17 18 19 19 19 18 17 18 17 17 18 18 18 17 17 16 16 16 15 14 14 15 15 15 15 16 17 17 18 19 20 21 21 22 23 23 24 24 25 26 26 26 26 26 26 26 27 27 27 27
2 1 1 1 2 3 3 3 3 3 3 4 4 4 3 5 5 7 10 11 10 9 7 8 10 11 11 10 10 10 8 7 7 6 6 9 14 16 16 17 16 16 15 15 16 16 16 17 17 17 17 17 16 15 15 16 16 16 15 15 14 13 13 13 13 12 13 13 14 14 15 16 16 17 18 19 20 21 21 22 22 23 24 24 25 26 27 27 28 28 28 29 29 29 30 30 30
2 3 3 2 1 2 1 1 3 3 3 2 4 6 6 4 3 6 7 6 8 11 10 10 10 11 12 10 8 8 8 8 8 6 6 10 15 16 17 17 16 16 15 15 16 15 16 15 15 15 15 15 14 13 13 13 13 12 11 11 11 10 11 11 11 11 12 13 14 14 15 16 16 17 18 19 21 22 23 23 23 24 24 24 25 25 26 26 27 28 28 28 29 29 30 31 31
4 5 6 6 4 3 2 3 2 3 2 4 4 7 7 3 1 2 3 4 5 8 8 9 10 10 9 7 6 7 7 8 7 6 7 11 14 17 18 18 17 17 16 16 16 15 15 15 14 14 13 13 12 11 11 10 10 9 8 8 8 8 8 8 9 10 11 12 13 14 15 16 16 17 18 19 21 22 23 23 24 25 25 25 26 25 25 26 26 27 28 28 28 28 29 30 31
Wind_Direction
340 341 335 331 332 325 339 54 78 330 72 72 324 57 247 224 223 273 280 292 318 250 227 286 127 128 65 149 183 189 179 168 167 115 151 237 308 213 184 178 157 173 181 179 177 183 187 183 179 184 189 188 189 189 190 191 193 195 193 195 189 187 182 175 173 167 164 160 161 157 154 151 150 149 148 147 142 148 146 134 128 121 118 119 123 108 99 104 98 95 89 82 80 78 82 81 79
346 343 341 330 337 356 296 75 90 339 53 76 270 171 258 295 339 233 234 225 215 258 297 287 123 72 40 98 134 129 222 222 192 173 272 276 308 241 187 180 170 167 183 183 179 183 188 187 182 184 190 191 192 191 193 194 195 197 197 199 193 194 190 182 183 177 174 171 170 166 165 156 154 155 154 156 148 147 147 144 134 126 129 126 128 116 102 88 70 57 42 79 62 47 44 25 6
346 344 348 338 348 38 71 40 90 56 71 113 274 240 274 18 228 235 226 220 231 286 326 256 142 94 58 35 57 114 287 264 224 221 282 282 301 246 190 182 165 163 184 188 184 185 189 190 185 184 189 193 195 193 194 196 196 197 200 202 195 197 195 187 188 187 183 181 179 174 173 162 158 158 159 162 150 145 151 157 141 135 138 128 134 133 105 78 59 19 313 288 277 277 288 297 297
347 348 350 353 58 40 64 41 131 115 101 182 304 267 245 190 230 252 244 246 256 315 351 113 137 218 103 19 286 136 297 273 226 196 273 291 281 298 192 185 173 166 183 193 191 188 191 192 188 186 190 193 196 197 197 198 198 198 202 202 198 199 199 192 191 192 188 191 189 179 179 169 162 162 166 165 152 149 154 161 147 136 135 133 137 118 102 81 65 32 336 307 290 270 268 279 285
350 357 359 37 113 46 96 72 111 99 158 185 64 283 246 209 233 269 266 281 276 297 95 98 357 279 101 173 169 145 263 261 266 211 237 312 277 278 189 191 189 176 185 196 197 194 194 194 193 190 191 194 197 200 200 201 199 198 203 203 202 203 202 199 195 195 193 199 196 181 182 177 169 168 175 174 160 159 158 163 160 145 139 139 138 114 92 47 41 29 353 326 314 303 278 274 283
1 17 25 57 102 103 120 95 119 117 214 171 90 278 269 227 225 276 289 303 289 146 139 88 65 318 8 263 199 203 222 92 318 225 236 309 280 245 192 199 199 190 190 197 202 201 198 197 197 195 194 197 199 202 203 204 201 201 207 205 205 205 204 202 196 198 196 199 199 187 185 180 174 173 181 193 177 169 171 184 187 163 158 149 136 112 84 52 17 4 354 329 321 328 305 277 279
16 9 24 58 59 41 101 129 178 204 217 168 131 264 283 255 226 316 322 326 339 31 68 85 137 100 291 302 307 240 230 240 268 257 279 287 256 229 196 202 204 204 196 198 205 206 204 201 201 200 198 199 200 203 207 206 202 205 211 209 209 208 206 205 198 199 199 196 195 192 189 181 176 178 190 214 220 164 170 185 206 185 172 150 122 90 66 29 2 359 353 327 327 336 326 293 282
28 15 19 80 36 29 86 112 219 215 332 235 236 239 263 256 211 21 321 302 222 328 3 306 333 99 293 1 322 264 276 264 271 279 281 272 237 210 196 202 209 213 200 200 206 210 210 205 204 205 203 203 202 205 211 209 204 207 214 214 214 212 209 209 205 203 203 198 196 195 193 190 190 192 198 215 225 166 150 155 168 183 171 148 131 113 23 356 359 354 332 322 324 328 322 312 296
36 30 126 76 74 32 47 35 279 247 279 277 277 255 267 254 177 103 280 287 305 299 315 294 354 1 308 354 283 285 346 305 296 283 271 250 214 180 195 205 216 220 203 200 206 213 214 210 208 208 208 206 206 208 214 214 209 210 216 218 217 215 213 213 211 209 207 202 200 202 200 199 203 204 202 211 217 175 140 139 146 168 172 171 207 215 238 324 342 320 314 311 318 325 314 305 304
38 28 118 71 80 45 19 302 292 254 265 276 278 259 258 213 147 59 264 282 47 59 310 290 91 341 316 305 278 316 346 327 333 300 245 214 200 173 196 211 217 218 209 205 207 214 216 216 212 211 212 210 210 210 215 218 215 215 218 221 220 218 215 215 215 213 210 203 204 209 210 208 212 214 210 215 218 191 165 156 155 169 178 195 242 253 267 280 315 328 310 301 318 329 318 298 306
27 2 90 77 73 77 146 220 283 273 280 300 291 264 236 184 129 86 275 290 22 62 303 7 82 279 337 305 270 308 332 335 4 33 230 202 205 192 204 216 213 208 212 216 214 217 219 220 217 215 214 214 214 213 216 219 218 218 219 221 223 222 216 216 215 216 211 205 209 211 215 218 222 222 217 220 219 204 187 185 184 183 184 215 260 289 301 291 294 303 293 300 316 323 327 311 304
56 346 62 84 117 164 170 200 281 286 305 321 319 313 203 159 109 252 277 310 0 3 278 198 159 178 5 315 274 315 352 18 92 74 223 210 229 216 218 224 220 212 210 217 219 222 223 225 223 220 218 217 216 216 217 219 220 220 221 222 223 224 219 218 217 218 214 208 212 216 218 219 224 228 225 223 214 212 207 195 197 203 204 237 276 307 316 307 302 291 283 296 304 309 323 325 306
107 120 79 88 154 152 145 182 278 302 327 309 198 317 224 139 278 234 175 356 345 5 295 217 178 100 318 284 304 323 3 32 108 148 213 222 236 225 230 230 227 226 216 218 219 221 224 227 229 226 223 219 218 218 219 220 222 221 222 223 223 224 222 221 219 220 218 212 214 220 222 221 225 229 229 227 215 213 215 202 199 210 221 245 280 303 315 310 296 287 281 291 301 307 317 318 305
132 149 106 108 78 131 155 105 302 298 307 276 252 299 324 214 223 199 143 24 289 221 302 232 151 84 272 295 330 300 342 10 16 244 246 236 238 229 235 235 235 236 230 229 225 225 225 228 232 231 227 222 220 219 221 223 224 224 224 225 224 225 223 223 221 221 219 215 216 220 224 225 226 231 233 233 224 216 215 212 211 213 224 254 280 298 308 290 277 281 281 288 300 308 312 311 299
133 132 92 110 39 35 174 149 130 126 173 275 271 298 350 252 159 144 168 131 274 220 296 303 141 287 257 260 288 264 335 359 353 303 280 253 244 233 236 238 242 243 243 243 236 234 232 233 235 236 233 227 223 221 223 224 227 228 226 227 227 227 227 226 224 223 220 216 219 221 225 227 228 233 237 240 235 227 219 217 223 224 246 279 286 300 309 286 273 280 282 285 296 301 302 302 292
117 110 69 92 83 80 183 176 130 115 215 253 275 125 15 283 163 153 218 144 276 297 356 275 197 296 204 191 258 288 334 340 338 317 286 262 250 239 241 241 246 246 249 254 248 244 240 240 239 240 239 233 228 225 225 226 229 231 230 230 230 230 229 230 229 226 222 219 223 225 227 229 230 235 239 242 240 234 229 228 232 227 255 277 282 302 310 296 281 280 284 286 293 297 294 292 286
66 78 68 64 144 183 192 182 167 140 255 274 325 39 66 305 276 202 182 96 313 316 352 271 252 254 212 237 303 328 336 336 334 316 291 276 272 264 258 250 253 250 249 255 256 253 246 245 244 242 241 238 234 229 228 228 229 233 235 234 232 234 232 232 234 230 227 225 227 229 231 231 231 236 242 244 238 234 235 241 243 233 252 268 275 294 299 304 298 289 291 290 294 298 290 281 277
53 79 91 43 189 187 184 183 192 163 296 284 334 25 60 312 308 337 5 39 359 335 316 288 297 287 262 299 334 340 344 352 351 337 336 338 336 323 307 294 285 275 263 261 260 259 254 250 248 245 242 240 237 234 231 230 231 231 235 237 235 236 235 234 234 232 231 231 233 234 234 234 234 237 241 244 242 239 237 242 249 240 247 264 276 292 295 302 305 303 301 296 300 306 292 272 268
82 113 77 257 204 207 199 181 193 190 245 260 305 6 84 250 273 6 322 304 344 344 306 326 331 308 313 335 349 351 356 9 15 15 14 11 4 351 336 321 310 303 293 281 270 264 260 255 251 248 245 242 238 236 234 233 233 232 231 235 238 238 238 237 236 234 232 233 237 238 238 238 238 240 240 239 242 243 241 243 248 245 247 263 272 279 293 298 302 307 304 302 308 316 302 267 260
130 113 65 250 215 239 236 195 207 216 209 260 295 360 93 248 231 3 309 296 319 300 275 329 345 309 319 338 360 13 26 33 35 37 33 26 21 13 360 343 329 322 310 294 280 271 267 262 256 252 248 245 241 237 235 233 233 234 232 232 236 238 239 238 239 239 236 236 238 237 239 241 242 246 246 242 240 238 240 242 241 244 245 253 261 260 283 293 297 304 303 307 312 320 314 274 259
122 125 174 227 191 265 244 205 221 227 203 205 263 359 314 272 199 204 121 334 307 277 244 227 245 286 304 333 7 25 35 36 34 36 33 27 23 19 13 5 353 345 331 311 290 275 269 266 261 255 251 247 243 240 236 235 233 233 234 233 234 236 238 237 239 242 240 240 240 238 238 241 242 245 251 252 250 244 243 243 237 249 250 240 243 243 269 292 292 299 301 306 309 315 317 294 269
121 213 187 189 151 262 252 203 228 210 136 243 312 322 301 269 126 178 155 228 271 249 223 208 225 287 340 11 17 25 29 30 27 27 24 20 17 14 12 11 8 5 2 350 327 296 276 266 259 252 251 248 245 242 239 238 235 233 234 235 237 238 238 237 235 237 240 241 241 241 239 241 242 242 250 253 259 260 253 250 244 247 246 235 233 242 274 298 294 296 296 299 302 307 313 306 284
170 275 264 212 178 230 258 187 224 147 75 288 253 287 323 32 315 211 181 224 234 226 157 110 68 57 68 49 36 28 24 23 22 21 18 15 12 10 10 11 12 11 12 8 358 336 300 274 260 249 246 248 246 243 240 239 237 235 236 236 238 237 237 242 241 234 233 239 243 246 244 244 244 241 241 243 255 257 243 251 256 244 233 229 231 251 283 295 295 298 291 290 296 300 306 306 295
112 261 306 277 188 221 254 236 223 164 235 257 256 321 300 274 295 268 219 241 246 25 71 84 74 61 59 50 39 31 26 21 18 18 19 18 12 11 12 14 16 15 16 14 9 360 336 294 265 251 243 244 246 244 240 239 238 236 236 238 240 237 238 246 253 249 237 236 236 242 249 246 245 244 243 246 253 252 242 254 266 255 244 235 229 250 281 286 295 303 290 284 292 296 300 303 299
121 226 281 291 223 247 274 297 272 241 242 250 296 292 266 224 209 274 279 339 76 73 71 71 70 57 50 47 36 28 26 21 14 12 16 17 15 18 19 18 21 21 19 16 14 12 1 334 281 253 244 239 240 243 240 238 238 237 236 239 242 244 244 241 245 258 260 249 232 230 243 244 244 241 238 247 251 253 255 260 260 252 249 242 239 259 270 272 293 301 289 283 289 294 297 299 299
207 207 262 296 294 292 301 292 272 254 246 189 258 278 282 253 194 277 295 68 101 79 59 40 59 55 44 46 38 31 28 20 12 9 11 15 18 19 18 19 22 22 21 21 21 20 17 7 341 262 246 238 231 235 237 238 239 240 239 239 243 247 253 248 243 256 269 270 250 236 238 239 240 237 234 249 257 255 251 251 258 258 254 240 236 253 261 269 286 287 282 282 289 294 294 296 296
200 204 272 275 297 303 299 285 288 332 276 192 220 277 303 326 331 221 294 332 90 74 50 34 57 53 43 45 38 37 33 23 14 14 15 14 16 13 12 16 19 22 23 27 28 27 28 30 33 34 252 241 227 225 231 237 240 242 244 246 249 251 259 262 257 260 269 279 275 264 253 235 227 233 240 246 256 259 249 247 265 270 266 248 237 255 271 274 277 273 274 280 290 295 292 291 292
140 341 307 292 318 306 275 284 289 321 286 188 185 268 318 354 327 192 253 343 58 80 55 38 53 48 40 41 37 38 33 26 21 24 19 10 8 6 9 14 15 21 28 30 32 34 36 42 50 57 67 71 119 218 227 237 242 248 254 258 262 262 265 269 267 262 264 277 285 286 281 253 238 254 258 253 261 267 257 256 266 270 268 259 258 268 269 269 269 267 271 276 287 293 290 290 291
66 40 336 306 343 326 290 307 303 147 241 169 154 279 310 250 203 196 230 32 67 74 56 38 48 41 36 37 37 38 29 26 26 25 18 10 10 10 14 17 19 25 32 37 40 43 43 46 54 59 67 74 78 96 186 231 252 264 275 282 289 286 279 281 283 278 269 275 283 285 292 287 278 279 269 264 269 267 258 251 257 270 269 260 258 259 261 265 266 265 269 273 284 289 288 290 291
308 39 38 314 349 329 299 15 359 351 207 168 143 290 281 250 235 238 220 108 78 63 51 37 33 31 33 30 34 34 27 26 25 22 17 16 17 16 19 23 28 32 38 47 49 51 53 55 59 62 67 74 79 84 88 87 67 36 10 328 304 286 277 277 278 278 275 271 272 275 282 291 287 282 277 272 266 261 261 255 255 266 269 263 261 262 265 267 264 264 269 272 278 281 283 289 292
314 1 49 354 346 284 294 334 356 346 7 75 116 232 267 268 285 323 352 128 99 78 58 38 29 25 25 24 31 28 23 26 25 22 21 21 21 23 26 28 35 40 45 52 55 59 62 65 68 71 75 78 81 85 87 89 86 85 83 75 56 289 294 326 292 276 281 276 270 271 275 278 275 277 280 280 276 269 267 261 257 259 261 264 266 267 268 267 266 267 268 270 272 273 277 285 294
30 320 303 337 190 264 307 306 177 194 342 33 104 207 276 282 283 316 356 87 102 93 68 42 37 24 23 22 27 25 16 23 25 23 22 24 26 28 31 34 40 45 49 56 61 67 70 73 76 79 80 81 83 86 90 94 94 93 92 90 85 75 66 63 63 62 53 43 27 1 324 300 285 277 271 268 267 263 260 256 253 256 259 261 262 264 265 265 265 263 262 263 266 269 273 280 289
357 165 247 265 204 274 322 321 259 205 92 22 67 208 282 292 247 334 5 61 91 92 80 53 47 28 30 24 23 30 17 18 21 18 19 24 29 33 37 41 46 51 54 60 66 70 73 76 80 83 85 87 88 90 93 95 95 94 90 88 87 83 76 71 69 66 63 63 61 58 55 53 47 32 2 312 285 273 275 273 270 273 277 276 272 268 263 259 259 259 258 258 259 263 270 277 282
304 339 232 249 217 230 300 302 336 39 104 7 6 196 260 263 185 18 4 57 88 92 97 71 58 41 34 29 31 33 25 26 16 9 14 23 31 38 44 48 53 59 62 66 70 74 77 79 84 88 91 94 95 96 97 96 96 94 92 89 87 84 80 76 72 67 63 62 63 62 61 58 56 55 53 49 45 33 15 1 345 333 326 320 306 290 277 268 265 264 262 260 260 260 265 274 281
200 187 204 249 237 233 256 260 295 20 25 292 248 235 263 272 278 42 4 39 88 101 113 97 72 54 39 35 37 31 30 32 15 11 18 26 33 40 47 53 58 62 66 71 75 80 83 84 88 92 95 98 99 101 101 100 99 96 93 90 85 81 78 75 72 70 66 62 60 58 56 54 53 53 53 53 55 51 45 39 33 30 22 12 3 341 313 298 291 287 282 279 277 274 275 280 284
174 171 163 192 224 249 239 236 259 307 346 276 237 236 257 273 284 44 16 33 87 107 99 84 64 51 44 40 37 34 39 27 11 19 28 32 37 42 48 54 58 63 66 71 77 82 85 87 91 93 95 99 103 104 102 101 99 96 92 87 81 77 76 75 71 69 67 64 60 57 55 55 55 54 54 53 53 52 51 50 48 44 39 34 32 21 360 344 335 326 316 306 302 300 297 294 292
143 145 152 191 220 261 254 236 275 226 195 265 240 235 254 265 278 28 30 47 80 98 91 79 64 56 44 48 41 36 43 22 21 30 35 38 42 46 50 55 59 63 64 67 72 76 80 85 89 89 91 97 100 99 98 96 94 92 90 86 81 77 76 75 72 68 66 64 60 56 53 53 53 52 51 49 48 48 47 45 43 42 40 40 40 38 29 17 8 356 346 335 327 324 318 312 310
135 153 187 249 227 253 267 241 295 324 186 271 299 274 269 265 277 23 36 88 83 133 129 122 107 89 58 61 50 36 32 15 28 32 33 37 43 48 52 55 58 58 58 61 66 71 78 84 86 87 89 92 93 93 93 92 91 92 91 89 86 81 77 75 73 70 68 67 63 58 55 52 49 48 45 43 45 45 44 42 42 42 41 40 38 35 28 22 18 11 5 358 353 346 337 331 328
168 134 163 275 241 266 291 295 338 14 175 273 327 298 274 274 6 51 29 92 76 331 118 125 126 110 72 66 57 47 41 24 29 25 25 34 43 50 55 56 59 61 60 62 65 71 78 83 84 88 90 92 92 93 94 94 94 95 94 92 90 86 80 78 77 73 70 69 66 64 62 58 54 52 49 46 47 48 48 47 45 42 40 37 33 31 28 25 23 19 15 8 4 0 352 347 347
194 157 172 253 237 95 283 297 342 19 133 258 269 298 279 280 56 61 30 81 77 41 69 66 75 102 95 90 71 63 58 38 31 16 17 32 43 50 53 55 62 68 67 64 64 69 76 81 84 89 92 94 95 96 97 98 99 97 95 93 92 90 86 83 80 73 69 67 65 64 61 60 60 60 59 56 55 55 53 53 51 48 46 43 40 40 38 35 32 29 26 24 19 13 6 3 0
229 196 205 234 225 208 229 283 328 345 13 30 117 340 295 278 270 202 43 76 75 53 65 60 48 68 90 87 64 58 64 52 38 16 12 29 41 49 54 58 65 70 71 67 65 69 77 83 86 89 92 94 96 98 100 103 103 102 101 97 93 88 81 75 72 68 66 65 63 62 61 61 61 63 63 62 61 60 59 58 56 54 53 50 46 45 44 40 36 33 30 29 28 23 16 13 7
281 227 213 222 221 219 228 344 6 3 344 328 84 318 290 308 294 218 175 109 75 50 64 78 60 54 66 71 59 52 54 53 40 27 25 35 44 53 58 61 65 70 74 75 75 76 82 88 90 92 93 94 96 98 103 107 106 104 101 93 87 81 72 66 66 66 67 67 65 64 63 63 63 64 64 64 64 63 62 60 57 56 53 50 47 44 43 39 35 33 30 26 26 24 18 18 14
270 242 208 213 208 201 206 144 97 181 252 294 73 182 255 315 311 229 162 129 107 70 76 114 114 79 84 87 75 64 50 42 36 33 36 42 48 52 57 61 65 70 77 84 86 85 86 90 92 93 93 93 95 97 100 100 98 96 92 87 84 82 79 74 74 74 74 74 73 70 68 66 65 65 65 64 64 63 62 61 58 57 54 50 46 42 40 36 33 32 29 27 26 22 19 20 15
233 241 156 165 178 187 191 163 170 225 245 321 4 157 238 287 280 242 136 144 241 229 215 227 193 157 138 138 114 100 84 66 60 45 38 45 52 56 61 66 71 77 83 89 91 90 90 90 92 93 93 94 95 95 94 93 92 92 91 90 88 87 87 85 84 82 81 80 77 74 71 69 67 66 66 65 64 63 62 62 60 60 58 55 52 49 45 39 35 30 26 25 23 22 23 22 17
241 193 119 134 154 162 149 138 170 259 10 301 292 170 244 265 267 293 118 201 250 215 210 220 195 185 172 162 162 141 140 123 96 79 59 59 65 69 74 80 84 87 89 91 93 94 95 94 94 93 93 94 95 94 92 91 92 93 93 93 92 91 91 91 89 86 83 81 79 75 73 71 68 67 66 64 64 63 62 62 61 61 59 58 56 55 52 47 43 38 32 27 23 22 23 20 16
198 123 92 74 73 81 88 113 128 61 55 243 237 188 210 271 280 259 152 238 247 205 203 208 189 192 185 173 178 166 156 128 106 98 87 83 85 87 91 95 95 95 95 97 98 99 98 98 96 94 94 95 95 95 94 94 95 94 94 96 96 96 94 93 90 85 81 78 76 73 71 69 67 65 64 63 61 60 59 58 58 58 57 56 55 53 51 48 46 44 40 37 33 30 26 22 18
143 109 69 49 37 39 38 61 94 72 273 245 234 208 203 264 277 236 199 222 206 162 172 192 185 197 194 188 186 174 167 150 130 111 104 103 103 103 104 102 100 102 103 103 102 102 101 100 99 98 97 98 98 97 97 97 97 96 97 98 98 96 94 92 86 80 77 75 72 69 67 65 63 61 60 59 57 55 54 54 53 53 52 51 50 49 48 45 44 42 41 39 36 34 30 26 23
116 95 86 81 355 10 23 359 44 151 255 264 277 257 196 229 259 245 226 225 185 159 173 184 186 192 191 190 187 179 176 169 160 137 121 117 112 111 110 106 106 106 105 104 104 104 104 103 104 102 100 100 100 99 99 98 97 97 97 96 95 92 90 86 82 77 73 70 68 66 64 62 59 57 55 53 51 48 47 47 46 46 45 45 45 45 44 44 43 40 38 36 33 31 28 24 22
100 106 110 108 332 356 359 306 269 224 247 271 309 292 215 235 247 233 209 203 216 220 202 187 184 184 183 187 186 178 173 175 178 167 145 128 119 115 113 111 111 109 107 107 107 107 107 107 107 105 102 102 102 101 99 98 96 94 94 92 91 89 85 82 79 75 71 67 64 61 58 55 52 50 48 47 44 41 40 40 38 38 37 37 36 36 36 35 35 33 32 31 29 26 23 19 17
153 150 138 137 140 131 250 258 260 263 259 284 297 273 250 263 266 240 216 224 268 254 238 214 191 180 178 180 176 172 173 184 191 181 167 147 134 127 122 119 116 114 114 114 113 113 113 111 111 109 106 106 105 103 101 98 96 94 93 91 89 87 84 80 76 72 69 65 61 59 56 52 49 46 43 41 38 36 35 33 32 31 29 28 25 24 24 23 22 21 20 18 17 16 13 9 6
183 167 136 147 158 169 214 215 208 247 281 306 289 226 197 213 258 266 256 286 302 278 243 208 183 169 164 161 160 169 181 193 196 184 178 165 149 142 135 128 125 122 123 122 120 120 118 116 115 113 112 110 108 106 103 101 98 96 93 91 87 84 81 78 75 70 67 64 60 58 55 51 48 44 39 35 32 29 28 26 24 23 21 18 15 13 12 10 9 8 6 5 3 359 358 355 352
213 135 109 167 189 156 163 187 171 178 304 297 224 214 219 190 223 297 300 327 340 344 28 151 157 155 153 161 170 180 192 198 194 183 183 176 161 153 146 139 135 133 132 130 128 126 124 122 120 117 115 113 110 107 104 102 100 96 91 88 84 81 78 75 72 68 63 60 56 52 49 45 42 37 32 27 23 21 19 17 16 15 13 10 7 5 2 360 359 357 354 353 350 348 347 345 342
161 136 177 218 188 121 111 250 64 85 266 270 194 241 286 337 301 298 357 360 351 1 62 144 156 159 162 177 185 190 199 197 191 187 184 178 168 161 155 150 147 144 142 139 135 133 131 129 126 123 118 115 111 108 105 102 99 94 88 84 80 76 73 70 66 62 58 53 49 44 39 34 30 26 21 17 13 11 9 7 7 5 4 2 359 357 355 353 351 350 348 346 343 340 338 337 337
127 181 211 197 137 93 102 225 346 50 240 271 217 228 263 240 255 297 11 297 264 244 190 158 161 169 178 192 195 197 202 194 190 190 186 179 171 165 163 160 156 154 150 145 141 139 136 134 131 127 122 117 113 109 105 101 96 92 86 81 77 72 68 65 61 56 50 44 39 35 28 23 20 16 11 7 4 2 360 359 358 356 355 354 352 351 350 348 347 346 344 341 339 336 333 332 331
124 189 194 123 145 161 107 166 224 209 239 278 289 260 244 200 208 214 210 228 222 205 193 180 182 186 192 199 200 202 201 194 193 192 186 180 175 172 168 166 163 160 156 151 147 145 142 139 136 130 123 118 115 110 105 99 94 89 84 80 75 70 66 61 56 50 41 36 31 26 21 16 12 7 2 359 356 353 352 351 350 349 348 347 347 347 346 346 345 343 341 339 337 335 332 329 329
62 93 91 52 158 166 156 160 168 176 221 276 297 304 273 222 198 181 200 214 197 181 190 197 197 196 199 199 197 198 197 196 197 193 186 180 180 178 173 171 169 165 162 158 155 153 149 146 142 134 126 120 117 113 107 100 93 88 84 81 75 69 64 58 52 45 36 31 27 20 15 12 7 1 357 353 350 348 347 345 344 343 341 340 340 341 341 340 339 338 337 335 334 334 332 329 328
149 147 174 209 116 116 191 197 134 141 166 215 266 279 271 249 194 184 214 230 191 181 188 195 201 204 205 203 195 195 197 199 198 189 181 181 181 180 176 174 172 167 167 167 164 161 156 153 149 141 134 129 124 118 113 105 97 93 88 83 76 67 62 53 45 38 31 25 20 14 10 6 1 356 352 349 346 345 344 343 342 341 340 339 339 338 338 336 334 333 332 332 331 330 328 327 325
175 186 191 186 166 131 184 240 196 139 170 181 213 262 269 257 174 207 267 266 204 190 185 190 206 209 207 209 205 202 204 204 200 185 178 181 181 181 178 175 174 174 175 174 171 168 163 159 154 147 142 139 134 128 121 113 108 102 91 84 76 65 56 45 34 27 20 15 11 8 4 0 357 354 350 347 345 345 344 343 343 342 342 342 342 341 340 338 336 334 332 331 331 329 326 325 323
Height
804 803 803 802 802 802 805 807 818 827 828 839 844 840 834 832 832 828 825 823 823 820 818 819 818 818 818 819 819 819 819 820 820 826 828 812 803 805 805 806 807 806 808 809 811 813 815 817 818 820 822 823 825 826 828 829 830 831 832 833 834 835 836 836 837 838 838 839 839 839 840 841 841 841 842 842 843 843 843 843 844 845 845 845 845 845 846 846 846 846 847 847 847 847 847 847 848
803 803 802 802 802 802 810 813 824 835 832 841 845 840 834 831 831 824 822 821 820 819 819 820 818 818 818 817 817 819 818 815 813 815 811 803 803 804 804 806 806 807 808 809 811 812 814 816 817 819 821 822 824 825 827 828 830 831 832 833 834 835 836 837 837 838 839 839 840 840 841 841 842 842 843 843 843 844 844 844 845 845 846 846 846 846 846 847 847 847 848 848 848 848 848 848 848
803 803 802 802 803 804 813 814 826 839 836 842 838 834 833 829 826 821 820 818 817 819 819 819 819 817 817 818 818 819 817 813 811 811 807 803 804 803 804 806 806 808 808 810 811 812 814 815 817 819 820 822 823 825 826 827 829 830 831 833 834 835 836 837 837 838 839 840 840 841 842 842 843 843 844 844 844 844 845 845 845 846 846 846 847 847 847 848 848 848 848 848 848 848 848 848 848
803 802 802 802 806 809 815 820 830 835 838 849 839 828 829 825 821 819 818 817 819 820 818 818 818 816 816 819 817 818 816 810 808 808 806 803 804 804 805 806 806 808 808 810 811 812 814 815 817 818 820 822 823 824 826 827 828 830 831 832 833 834 835 836 837 838 839 840 841 841 842 843 843 844 845 845 845 845 845 846 846 847 847 847 847 847 848 848 848 848 848 849 848 848 848 848 848
802 803 803 801 808 813 819 831 838 833 834 843 834 825 825 822 821 819 818 818 819 819 817 818 818 815 815 817 816 817 813 809 806 805 806 804 804 805 805 806 807 808 808 810 811 812 813 815 817 818 820 821 823 824 826 827 828 830 830 832 833 834 835 836 837 838 839 840 840 841 842 843 844 844 845 845 846 846 846 847 847 847 848 848 848 848 849 849 849 849 849 849 848 849 849 848 848
802 803 803 802 810 814 820 831 834 830 829 831 826 824 824 822 823 820 819 817 817 818 817 818 818 817 816 814 813 812 809 808 807 805 805 804 805 805 806 807 807 808 809 810 811 812 813 815 817 818 820 821 823 824 826 827 829 830 831 832 833 834 835 836 837 838 839 840 840 841 842 843 844 844 845 845 846 846 847 847 848 848 848 849 849 849 850 850 850 850 849 849 849 849 849 849 848
802 803 806 807 814 817 823 830 831 830 830 832 827 823 823 823 825 822 820 818 817 817 817 818 818 819 818 815 812 808 805 806 805 805 805 805 805 805 806 807 808 809 809 811 812 813 814 816 817 818 820 821 823 824 826 827 829 830 831 832 833 834 835 836 837 838 839 840 840 841 842 843 844 844 845 845 846 846 847 848 848 849 849 850 850 850 851 850 850 850 849 849 849 849 849 848 848
802 806 812 813 821 828 831 834 834 834 832 834 831 825 823 823 825 822 820 821 819 818 818 819 818 819 819 818 815 807 804 805 804 805 805 805 805 806 806 808 808 809 810 811 812 814 815 817 818 819 820 822 823 824 826 827 829 830 831 833 834 835 835 837 837 838 839 840 841 841 842 843 843 844 845 845 846 847 847 848 848 849 850 850 851 851 851 851 851 850 849 849 849 849 849 849 848
803 807 815 817 826 834 837 838 837 837 832 831 829 824 823 825 826 822 820 821 821 820 818 819 818 819 820 819 815 807 804 805 804 804 804 805 806 806 807 808 809 810 810 811 813 814 815 817 818 820 821 823 824 825 826 827 829 830 831 832 833 835 836 837 838 839 839 840 841 841 842 843 844 844 845 845 846 847 847 848 849 849 850 851 851 851 851 852 852 851 850 849 849 849 849 849 848
806 810 817 822 830 836 838 840 837 835 831 830 829 823 822 825 825 823 822 820 821 821 819 820 819 819 819 818 814 806 804 804 804 804 804 805 806 806 808 808 809 810 811 812 813 814 815 817 818 820 821 823 824 825 827 828 829 830 831 832 833 834 836 837 838 839 840 840 841 842 843 843 844 844 845 846 846 847 847 848 849 850 851 851 851 851 852 852 852 852 850 849 850 849 849 849 849
811 816 820 825 832 836 838 837 834 832 831 832 827 822 823 824 823 823 823 820 822 821 819 820 819 818 818 817 813 806 804 804 804 805 805 806 806 807 808 809 809 810 811 812 813 814 815 816 818 819 821 822 824 825 826 827 829 830 831 832 833 834 836 836 838 839 839 840 841 842 843 844 844 845 845 845 846 847 848 848 849 850 851 851 852 852 852 852 852 852 850 849 850 850 850 849 849
814 823 822 824 834 837 840 838 832 832 831 829 823 820 825 824 822 821 821 821 821 821 819 818 818 817 818 818 812 805 804 804 805 806 806 806 807 807 808 808 809 810 811 812 813 814 815 816 817 818 820 821 822 824 825 826 828 829 831 832 833 834 835 836 837 838 839 840 841 842 843 844 844 845 845 846 846 847 848 848 849 850 851 851 852 852 852 852 852 852 851 850 851 851 851 850 850
817 827 821 827 844 845 843 840 836 835 829 826 822 822 825 822 820 820 821 821 822 821 818 817 816 816 819 817 810 806 806 805 806 806 806 807 807 807 808 808 809 809 810 811 812 813 814 815 816 817 818 820 821 823 824 826 827 828 830 831 832 833 835 836 837 838 839 840 841 842 842 843 844 845 845 845 846 847 848 848 849 850 851 851 852 852 852 853 853 852 851 851 851 851 851 851 851
817 825 821 834 855 849 842 839 836 835 828 825 823 823 823 820 820 820 821 822 822 820 816 815 815 817 819 817 812 809 807 806 807 807 807 807 807 807 807 808 809 809 810 810 811 812 814 814 815 816 817 819 820 822 823 825 826 828 829 830 832 833 834 835 836 837 838 839 840 841 842 843 843 844 845 845 846 847 848 848 849 850 850 851 852 852 852 853 852 852 852 852 852 852 852 851 851
817 824 825 836 849 845 841 839 837 835 828 825 823 823 822 819 820 820 820 821 820 817 816 815 815 817 818 818 815 809 807 807 808 807 807 807 807 808 808 808 809 809 810 811 812 812 814 815 816 816 817 818 819 821 823 824 826 827 829 830 831 832 834 835 836 837 838 839 840 841 841 842 843 843 844 845 846 847 847 848 849 850 850 851 852 852 852 852 852 852 852 852 852 852 852 852 852
818 821 826 832 839 841 839 841 843 838 828 823 823 824 821 819 821 820 818 818 818 817 817 816 814 816 816 816 813 808 808 807 807 807 807 807 807 807 808 809 809 810 810 811 812 813 814 815 816 817 817 818 819 821 822 824 826 827 829 830 831 832 834 835 836 837 838 839 839 840 841 842 842 843 844 844 845 846 847 848 849 849 850 851 852 852 852 851 852 852 852 852 852 851 852 852 852
817 819 826 830 837 839 835 839 840 833 826 822 822 823 821 820 820 818 818 818 818 819 818 816 814 814 813 812 810 809 809 807 807 807 807 807 807 808 808 809 809 810 811 811 812 812 813 814 815 816 817 818 819 821 822 824 825 827 828 829 831 832 833 835 836 837 837 838 839 840 841 841 842 843 843 844 845 846 847 848 849 849 850 850 851 852 852 851 852 851 851 851 851 851 851 851 851
818 826 830 832 838 835 829 831 830 827 825 822 821 823 823 821 820 818 818 818 819 820 818 816 814 813 812 811 810 810 809 808 807 807 807 808 808 808 808 809 809 810 811 811 812 812 813 813 814 815 816 818 819 820 821 822 824 826 827 828 830 831 833 834 835 836 837 838 839 840 841 841 842 842 843 844 845 846 847 847 849 849 849 850 851 852 851 851 852 852 852 851 851 851 851 851 851
823 832 833 832 834 830 826 826 825 826 824 823 823 825 825 823 822 820 819 820 820 820 818 817 816 813 811 811 811 810 809 808 808 808 809 809 810 810 809 809 808 809 810 811 811 812 812 812 813 814 815 817 818 819 820 821 823 824 826 827 829 830 832 833 834 835 836 837 838 839 840 841 842 842 843 844 845 846 846 847 848 849 849 850 850 851 851 851 852 852 851 851 851 851 851 851 851
826 832 830 829 830 827 827 826 823 823 824 823 823 826 826 823 823 821 822 823 821 820 818 817 818 814 812 812 812 810 809 809 809 810 810 811 812 812 811 810 809 809 808 809 810 811 811 812 812 813 813 815 816 817 818 820 821 823 825 826 828 829 830 832 833 834 835 836 837 838 840 840 841 842 843 844 845 845 846 846 848 848 849 849 850 851 851 851 852 852 851 851 851 851 851 851 851
828 829 826 828 832 828 823 824 823 824 825 824 824 828 825 822 824 822 823 825 821 818 817 817 817 815 814 814 814 813 812 811 812 812 812 813 813 813 813 812 811 809 808 807 808 809 809 810 810 811 812 813 814 816 817 818 820 821 823 825 827 828 829 830 832 833 834 835 836 838 839 840 840 841 842 843 844 845 846 846 847 848 849 849 849 850 851 852 852 852 851 851 851 851 851 851 851
826 827 826 829 832 827 821 824 824 824 826 825 825 825 823 822 823 821 823 825 821 816 816 816 816 816 817 817 817 816 815 815 815 815 815 815 814 814 813 812 811 809 808 807 806 807 807 807 808 809 811 812 813 814 816 817 819 821 822 824 825 827 828 829 830 831 833 834 835 836 837 838 839 840 841 842 843 844 845 846 846 847 848 848 848 849 850 851 852 852 851 851 851 851 851 851 851
826 826 828 829 831 826 822 824 824 825 825 824 824 823 824 823 822 822 822 820 818 816 816 817 818 820 820 819 819 819 819 819 818 818 818 817 816 815 814 812 811 809 808 807 806 806 806 806 806 807 808 810 812 813 815 817 818 820 822 823 825 825 826 828 828 829 830 832 834 835 837 837 838 839 840 840 841 842 842 844 845 845 845 846 847 848 849 850 851 851 851 851 851 851 851 851 851
828 827 825 828 830 826 822 824 825 826 824 822 823 823 822 821 822 823 820 816 816 817 818 819 820 821 820 820 822 823 822 822 821 821 820 819 818 817 816 814 812 810 809 807 806 805 804 804 805 805 806 808 811 813 815 816 818 820 821 823 824 825 825 826 828 828 829 829 830 832 834 836 836 837 838 839 840 841 841 842 844 844 844 845 845 846 848 849 849 850 850 850 850 850 850 850 850
828 828 825 826 828 824 822 824 823 824 823 822 823 820 818 821 822 821 817 816 817 819 820 821 821 820 822 823 825 825 824 824 822 822 821 820 819 818 816 814 813 811 809 808 806 805 804 803 803 804 805 807 809 811 814 816 818 819 821 823 824 825 826 825 826 828 829 828 828 829 831 833 834 834 836 838 839 840 841 842 843 843 843 844 844 845 847 848 848 849 849 849 849 849 850 850 850
827 826 826 825 824 822 822 821 819 821 821 821 821 816 816 821 821 819 818 817 819 820 821 822 821 822 825 827 827 827 826 825 824 823 822 820 819 816 815 814 813 811 810 809 807 805 804 803 802 803 805 806 808 810 813 815 818 819 821 823 824 825 826 826 827 827 828 828 828 828 829 829 830 832 834 835 837 838 839 839 841 842 842 842 842 843 845 846 847 847 848 848 848 849 849 849 849
828 827 827 825 824 824 822 818 818 821 820 819 819 815 817 821 819 818 819 819 820 819 822 825 823 826 829 828 829 828 827 827 826 825 822 820 819 817 816 815 813 812 811 809 807 806 805 803 803 803 804 806 808 810 812 814 816 819 821 822 824 825 826 827 827 828 828 828 828 828 828 828 829 831 832 833 835 836 837 837 839 840 840 841 841 842 844 845 845 846 847 847 848 848 848 848 848
828 828 826 824 824 823 820 817 819 820 817 818 820 817 819 820 818 818 819 820 820 818 822 826 826 829 831 830 830 829 829 829 828 826 824 823 822 821 819 817 815 814 812 810 809 807 806 805 804 804 805 806 809 811 813 815 817 819 820 822 823 825 826 826 827 828 828 828 828 828 828 829 829 830 831 832 834 835 835 836 837 839 839 840 841 841 842 843 844 845 846 846 847 847 847 847 847
828 828 827 824 823 820 818 819 821 820 816 818 820 818 818 818 817 819 821 821 820 819 823 827 829 832 832 831 831 830 831 830 829 828 827 827 826 824 822 820 818 815 814 813 811 809 807 806 806 806 806 807 809 811 813 816 817 819 820 822 823 824 825 826 827 827 828 828 829 829 829 829 830 830 831 832 833 834 834 834 836 837 838 838 839 840 841 842 843 844 844 845 846 846 846 846 846
828 830 831 830 828 823 820 823 822 819 818 819 820 821 815 811 816 820 822 821 818 821 827 830 831 833 833 833 833 832 832 831 830 830 830 829 827 825 823 821 819 817 816 814 812 810 809 808 807 807 808 808 810 811 813 815 817 819 821 822 823 824 825 825 826 826 827 828 828 829 829 830 830 830 831 832 832 833 833 834 835 836 836 837 838 839 840 841 842 842 843 844 845 845 845 846 845
830 833 835 839 838 826 820 824 822 817 820 820 819 825 816 807 815 819 821 821 817 822 831 833 833 834 835 835 835 835 834 833 832 832 831 829 828 826 824 822 820 819 817 815 813 812 811 810 809 809 810 810 811 812 814 815 817 819 820 821 823 824 825 825 825 826 826 826 827 827 828 828 829 829 830 831 832 833 833 834 834 835 835 836 837 838 839 840 840 841 842 843 843 844 844 845 845
835 835 836 843 843 828 820 823 824 819 820 820 819 826 818 809 815 818 820 821 817 824 833 835 836 837 837 837 837 837 836 835 833 832 831 830 829 827 825 824 822 820 818 817 816 814 813 812 811 811 811 812 813 814 815 816 818 819 820 821 822 824 825 826 826 826 826 826 826 827 827 827 828 829 830 831 832 833 833 834 834 835 835 836 836 837 838 838 839 840 840 841 842 842 843 843 843
839 839 835 838 840 834 827 822 825 823 820 820 821 824 818 812 819 819 819 820 817 824 833 836 838 838 839 839 838 838 837 836 834 834 833 831 830 829 827 825 823 822 820 819 817 816 814 814 813 812 813 814 815 816 817 818 819 820 821 822 823 824 826 827 828 828 828 828 828 828 829 829 829 829 830 830 831 832 833 833 834 834 835 836 836 837 837 837 838 839 839 840 841 841 842 843 843
838 844 840 838 839 837 831 822 823 825 821 821 822 824 818 810 817 820 820 822 818 823 833 837 840 840 840 840 839 839 839 838 837 836 835 833 832 830 828 827 825 823 822 820 819 817 816 816 815 815 815 816 817 818 819 820 821 822 823 824 825 825 827 828 828 828 829 829 830 830 831 829 830 830 830 830 831 831 832 833 833 834 835 836 836 837 837 838 838 839 839 840 840 841 841 842 842
829 838 839 838 838 837 834 827 824 824 822 822 823 825 818 808 813 821 824 824 820 827 836 838 840 841 841 841 840 840 840 840 840 838 837 835 833 832 830 828 826 825 823 822 820 819 818 818 817 817 817 818 819 820 821 822 822 824 825 825 826 827 828 829 829 829 830 831 831 831 830 830 830 830 830 831 831 831 832 833 834 834 835 835 835 836 837 838 839 840 840 840 841 841 841 842 842
823 829 831 831 831 832 832 829 826 825 824 823 824 824 818 810 812 820 828 828 826 832 838 839 841 841 841 842 841 841 841 841 841 839 838 836 834 833 831 830 828 827 825 824 822 821 820 819 819 819 819 820 821 821 822 823 824 825 826 827 828 830 831 831 831 832 833 833 833 833 832 832 833 833 833 833 832 832 833 834 834 834 835 835 835 837 838 838 839 839 840 841 841 842 842 842 842
827 829 831 831 831 829 828 827 826 827 826 823 824 825 821 815 814 823 833 832 831 834 836 839 841 842 842 842 842 842 841 842 841 839 838 837 836 834 833 831 830 828 827 826 825 824 823 822 821 820 821 822 822 822 823 824 825 826 827 829 831 833 834 833 834 835 835 835 835 835 835 835 835 835 835 834 834 834 835 835 835 835 835 836 837 838 838 838 838 839 840 841 841 841 842 842 842
827 830 831 834 836 832 827 828 828 830 828 824 827 828 821 815 817 828 835 831 832 837 837 840 842 842 843 843 843 842 842 842 841 839 839 837 836 835 833 832 831 830 830 829 828 828 826 825 824 824 823 823 823 824 824 825 827 828 829 831 833 834 836 836 836 838 838 838 838 837 838 837 837 837 836 836 836 836 836 836 836 837 837 837 837 838 838 838 839 839 840 840 841 841 841 842 842
829 833 835 835 835 832 828 829 831 831 829 825 827 828 818 813 822 834 838 835 839 843 840 842 843 843 844 843 843 843 843 843 842 841 840 839 837 835 834 833 833 832 832 832 832 831 830 828 828 827 826 826 826 826 826 827 828 830 831 833 834 835 837 838 839 840 841 840 840 840 840 840 839 838 838 838 838 838 838 838 838 839 839 839 839 839 839 839 839 840 840 841 841 841 842 842 842
831 833 835 833 832 832 827 827 831 831 832 829 826 828 819 813 823 836 843 843 844 846 845 845 846 845 845 845 845 844 844 843 843 843 842 840 838 836 835 835 834 833 832 833 834 833 832 831 831 830 830 829 829 829 829 829 831 831 833 834 836 837 838 840 840 841 842 842 843 843 842 842 841 840 840 840 840 840 840 840 840 840 840 841 841 841 840 841 841 841 841 841 841 841 842 842 841
833 833 832 829 829 830 827 828 830 829 833 833 829 829 820 812 815 827 841 846 845 847 847 846 847 847 847 846 846 845 845 845 844 844 843 842 840 839 838 837 836 833 832 834 835 835 834 833 833 833 833 832 832 833 832 832 833 833 834 836 837 838 839 840 840 842 843 844 845 846 845 845 844 843 842 842 842 842 842 842 842 842 842 843 843 843 843 843 843 842 842 842 842 842 842 841 841
832 827 824 823 823 825 828 831 831 830 831 832 833 828 818 809 808 818 836 842 843 847 847 846 847 847 847 846 846 846 846 846 846 845 845 843 842 842 840 839 838 836 834 835 836 837 835 834 834 834 834 834 834 835 835 835 835 835 836 837 838 839 840 842 843 844 845 846 847 848 848 848 847 845 845 844 844 843 843 843 843 843 843 844 844 844 844 844 844 844 844 843 843 842 842 841 841
830 823 820 822 824 827 830 830 832 832 830 835 838 830 821 811 801 813 834 836 839 845 845 846 847 846 847 847 847 847 847 847 847 846 846 845 844 843 842 841 840 839 838 837 838 838 837 836 835 835 835 836 836 837 837 836 836 836 837 838 840 841 842 846 848 848 848 848 849 850 850 850 849 848 847 847 846 845 845 844 844 844 844 844 845 845 845 845 846 845 845 845 844 844 843 842 842
825 823 822 822 823 825 828 830 831 831 830 835 836 829 829 822 807 818 833 828 833 844 843 845 846 846 847 848 847 847 847 847 847 847 847 846 846 845 843 842 842 842 841 840 839 839 839 838 837 837 837 837 838 838 838 837 837 838 838 839 841 843 845 847 850 850 850 850 850 850 851 851 851 851 850 849 848 848 847 846 846 845 845 845 845 845 846 846 847 846 846 846 845 845 844 844 844
821 828 830 826 825 826 828 829 832 836 836 833 830 829 831 823 814 824 830 818 820 834 839 841 844 845 846 847 847 847 847 847 847 847 847 846 846 845 844 844 843 844 843 842 841 840 840 840 839 839 839 839 840 840 839 839 839 839 840 840 842 845 847 849 850 851 852 851 851 851 852 853 853 853 853 852 851 850 850 849 849 847 847 847 846 846 847 847 847 846 847 847 846 847 846 846 845
824 833 832 831 833 834 833 832 831 837 840 830 823 824 825 820 812 815 821 811 807 821 834 838 841 844 845 846 846 846 847 847 847 847 847 846 846 845 845 844 844 844 844 844 843 842 841 841 841 841 841 842 842 842 841 841 841 841 842 843 844 847 849 850 851 852 853 853 852 853 854 854 855 855 854 854 853 853 852 852 851 850 849 849 848 848 848 847 847 847 847 848 848 848 848 847 847
828 827 822 825 831 833 834 835 833 835 834 826 823 822 821 821 812 805 810 809 806 815 828 837 842 843 844 844 845 846 846 847 847 847 847 846 846 846 845 845 845 845 846 846 845 843 843 843 843 842 844 845 845 845 843 843 844 843 844 845 846 849 850 851 851 852 854 854 854 855 855 856 856 856 856 855 855 855 855 854 853 853 852 851 850 850 849 849 849 849 848 848 848 848 849 848 848
825 817 817 824 828 830 834 836 836 836 828 824 834 835 828 823 810 800 805 813 817 816 819 830 838 839 842 843 844 845 846 847 847 847 847 847 846 846 846 846 846 846 847 848 846 845 844 844 845 844 846 847 847 847 846 845 846 846 847 848 848 850 851 852 852 854 855 855 856 856 857 857 857 857 857 856 856 856 856 855 855 854 853 853 852 851 851 850 850 850 849 849 849 849 849 849 849
821 816 820 827 831 835 835 834 838 837 827 831 841 836 829 821 806 798 801 813 826 826 824 829 833 836 840 841 843 844 846 847 847 847 847 847 847 847 848 847 847 847 848 849 848 846 846 846 846 846 848 849 849 848 848 847 848 848 849 849 850 852 852 853 854 855 856 857 857 858 858 858 858 858 858 857 857 857 857 856 855 855 854 854 854 853 852 851 850 850 849 849 849 849 849 849 849
821 816 818 824 832 836 833 835 840 834 826 836 844 835 827 816 805 807 811 819 832 833 832 832 831 834 837 839 842 843 845 846 846 847 847 847 847 848 848 848 848 848 849 850 849 848 847 848 848 848 849 851 850 850 849 849 849 850 851 851 852 853 853 854 855 856 858 858 858 859 859 860 860 859 859 859 859 859 858 858 857 856 856 855 855 854 853 852 850 850 849 849 849 849 849 849 849
822 818 816 818 820 820 820 823 824 822 822 834 840 830 813 802 808 824 829 832 837 833 833 834 831 834 836 838 842 842 843 844 844 845 846 846 847 847 848 848 848 849 849 850 850 849 849 849 849 849 851 852 852 851 851 850 851 852 852 853 853 854 854 855 856 858 859 860 860 861 861 861 861 861 861 861 860 860 859 859 858 858 857 856 855 854 853 852 851 850 849 849 849 849 849 849 848
824 824 819 816 811 807 819 830 829 828 828 830 831 819 806 807 823 837 837 833 835 833 832 833 831 834 837 838 840 840 841 841 842 844 844 845 846 846 847 848 848 850 850 851 850 850 850 850 851 851 852 853 853 853 852 852 853 853 854 854 855 855 856 856 857 859 860 861 862 862 862 862 862 862 862 861 861 860 860 859 859 858 857 857 856 855 853 852 850 849 848 848 847 847 847 847 847
820 824 815 815 814 806 817 837 845 844 831 821 821 812 804 810 819 831 835 829 831 834 832 832 833 834 836 836 837 838 838 839 840 842 842 843 845 846 847 847 848 849 850 851 850 850 851 851 851 852 853 854 854 854 854 854 854 854 855 855 856 857 857 857 858 859 860 862 862 862 863 862 862 862 862 861 861 860 859 858 858 857 856 856 855 854 853 851 850 848 848 847 847 846 846 846 845
813 816 809 813 817 810 813 823 832 840 831 818 817 811 802 801 803 818 829 822 823 832 833 833 836 835 835 834 834 835 835 837 839 840 841 842 843 845 846 847 848 849 850 850 850 851 851 852 852 853 853 854 855 855 855 855 855 855 856 856 857 858 858 859 859 860 861 861 862 863 863 863 862 862 861 861 860 860 859 858 857 856 856 855 855 853 852 850 848 848 847 847 846 845 845 844 843
807 808 807 809 810 811 817 819 818 825 827 815 811 810 806 799 795 803 809 803 809 826 834 834 834 834 833 831 832 833 834 836 837 838 840 841 842 843 845 846 847 848 850 850 851 851 852 853 853 854 854 854 855 856 856 856 856 856 856 857 858 859 859 859 859 860 861 862 863 864 864 863 863 862 862 861 861 860 859 858 857 857 856 855 854 852 850 848 847 846 846 845 844 844 842 842 841
810 810 810 809 807 806 811 816 812 813 818 813 805 801 795 792 792 789 786 790 803 820 831 831 830 830 828 826 828 830 831 833 834 836 838 839 841 842 843 845 846 848 849 850 851 851 852 853 854 854 854 855 855 856 856 857 857 857 857 858 859 859 859 860 860 861 862 863 863 864 864 863 863 862 862 861 861 860 859 858 857 856 855 854 852 851 849 848 846 845 845 844 843 842 840 839 838
807 808 810 810 811 810 809 812 811 808 811 811 808 799 785 788 799 792 786 795 806 815 821 824 826 825 823 823 825 827 829 830 831 833 836 838 839 841 842 844 846 847 849 849 850 851 852 853 853 853 854 854 855 856 856 857 857 857 858 858 859 860 860 860 861 862 863 863 864 864 863 863 863 862 862 861 860 859 858 857 856 855 854 853 851 850 849 847 846 845 844 843 842 841 840 838 836
799 799 801 801 804 807 808 810 810 808 806 803 806 799 782 790 809 806 801 806 810 814 818 820 822 821 823 825 826 827 828 828 831 833 835 837 838 840 841 843 845 846 847 848 849 851 851 852 852 853 853 854 855 855 856 856 857 857 858 859 859 860 860 861 861 862 863 863 863 863 862 862 861 861 860 859 858 858 857 856 854 853 852 851 850 849 847 846 845 844 843 842 841 839 838 836 834